• In Italy
  • List of Countries
  • For 7 days
  • Water Temperature
  • Satellite Maps
  • Weather Map
  • Weather Widgets
  • user-avatar
    Login

    Hourly Weather Kota

    Today, 19 November, Sunday

    Time Temperature Precipitation Wind Pressure Humidity
    00:00 +21°C° 0 mm 2 mps 738 mmHg 48%
    01:00 +20°C° 0 mm 2 mps 737 mmHg 49%
    02:00 +21°C° 0 mm 1 mps 737 mmHg 50%
    03:00 +21°C° 0 mm 1 mps 737 mmHg 50%
    04:00 +19°C° 0 mm 2 mps 737 mmHg 51%
    05:00 +19°C° 0 mm 2 mps 737 mmHg 51%
    06:00 +20°C° 0 mm 2 mps 738 mmHg 49%
    07:00 +21°C° 0 mm 2 mps 738 mmHg 48%
    08:00 +21°C° 0 mm 2 mps 739 mmHg 46%
    09:00 +24°C° 0 mm 2 mps 739 mmHg 42%
    10:00 +26°C° 0 mm 3 mps 739 mmHg 38%
    11:00 +28°C° 0 mm 3 mps 739 mmHg 35%
    12:00 +28°C° 0 mm 3 mps 738 mmHg 33%
    13:00 +29°C° 0 mm 3 mps 738 mmHg 32%
    14:00 +30°C° 0 mm 2 mps 737 mmHg 31%
    15:00 +29°C° 0 mm 2 mps 737 mmHg 32%
    16:00 +28°C° 0 mm 2 mps 737 mmHg 34%
    17:00 +28°C° 0 mm 2 mps 737 mmHg 35%
    18:00 +27°C° 0 mm 2 mps 737 mmHg 35%
    19:00 +26°C° 0 mm 3 mps 738 mmHg 35%
    20:00 +26°C° 0 mm 3 mps 738 mmHg 35%
    21:00 +25°C° 0 mm 3 mps 738 mmHg 36%
    22:00 +25°C° 0 mm 3 mps 738 mmHg 36%
    23:00 +24°C° 0 mm 3 mps 739 mmHg 36%

    Tomorrow, 20 November, Monday

    Time Temperature Precipitation Wind Pressure Humidity
    00:00 +24°C° 0 mm 3 mps 739 mmHg 34%
    01:00 +22°C° 0 mm 3 mps 738 mmHg 33%
    02:00 +22°C° 0 mm 3 mps 738 mmHg 32%
    03:00 +22°C° 0 mm 3 mps 738 mmHg 31%
    04:00 +21°C° 0 mm 3 mps 738 mmHg 31%
    05:00 +20°C° 0 mm 3 mps 738 mmHg 31%
    06:00 +21°C° 0 mm 3 mps 739 mmHg 29%
    07:00 +21°C° 0 mm 3 mps 740 mmHg 27%
    08:00 +22°C° 0 mm 3 mps 740 mmHg 25%
    09:00 +24°C° 0 mm 3 mps 740 mmHg 23%
    10:00 +26°C° 0 mm 3 mps 740 mmHg 22%
    11:00 +28°C° 0 mm 4 mps 740 mmHg 20%
    12:00 +28°C° 0 mm 3 mps 739 mmHg 21%
    13:00 +29°C° 0 mm 3 mps 739 mmHg 22%
    14:00 +29°C° 0 mm 3 mps 738 mmHg 23%
    15:00 +28°C° 0 mm 3 mps 738 mmHg 25%
    16:00 +28°C° 0 mm 2 mps 737 mmHg 27%
    17:00 +27°C° 0 mm 2 mps 737 mmHg 29%
    18:00 +26°C° 0 mm 2 mps 738 mmHg 29%
    19:00 +25°C° 0 mm 2 mps 738 mmHg 29%
    20:00 +24°C° 0 mm 2 mps 739 mmHg 29%
    21:00 +23°C° 0 mm 2 mps 739 mmHg 29%
    22:00 +22°C° 0 mm 3 mps 739 mmHg 29%
    23:00 +21°C° 0 mm 3 mps 739 mmHg 29%

    Day after tomorrow, 21 November, Tuesday

    Time Temperature Precipitation Wind Pressure Humidity
    00:00 +21°C° 0 mm 2 mps 738 mmHg 27%
    01:00 +20°C° 0 mm 2 mps 738 mmHg 26%
    02:00 +19°C° 0 mm 2 mps 738 mmHg 25%
    03:00 +19°C° 0 mm 2 mps 738 mmHg 24%
    04:00 +19°C° 0 mm 2 mps 738 mmHg 23%
    05:00 +18°C° 0 mm 2 mps 737 mmHg 22%
    06:00 +19°C° 0 mm 2 mps 738 mmHg 22%
    07:00 +20°C° 0 mm 2 mps 739 mmHg 22%
    08:00 +20°C° 0 mm 2 mps 739 mmHg 22%
    09:00 +23°C° 0 mm 2 mps 739 mmHg 20%
    10:00 +25°C° 0 mm 2 mps 739 mmHg 19%
    11:00 +27°C° 0 mm 2 mps 739 mmHg 17%
    12:00 +28°C° 0 mm 2 mps 738 mmHg 18%
    13:00 +28°C° 0 mm 2 mps 737 mmHg 18%
    14:00 +29°C° 0 mm 2 mps 736 mmHg 19%
    15:00 +28°C° 0 mm 2 mps 736 mmHg 21%
    16:00 +27°C° 0 mm 2 mps 736 mmHg 23%
    17:00 +26°C° 0 mm 2 mps 736 mmHg 25%
    18:00 +25°C° 0 mm 2 mps 737 mmHg 25%
    19:00 +24°C° 0 mm 2 mps 737 mmHg 25%
    20:00 +23°C° 0 mm 2 mps 738 mmHg 25%
    21:00 +23°C° 0 mm 2 mps 738 mmHg 25%
    22:00 +21°C° 0 mm 2 mps 738 mmHg 25%
    23:00 +21°C° 0 mm 2 mps 738 mmHg 25%

    22 November, Wednesday

    Time Temperature Precipitation Wind Pressure Humidity
    00:00 +21°C° 0 mm 1 mps 737 mmHg 25%
    01:00 +21°C° 0 mm 1 mps 737 mmHg 25%
    02:00 +20°C° 0 mm 1 mps 737 mmHg 24%
    03:00 +20°C° 0 mm 1 mps 737 mmHg 24%
    04:00 +19°C° 0 mm 1 mps 737 mmHg 23%
    05:00 +19°C° 0 mm 1 mps 737 mmHg 23%
    06:00 +19°C° 0 mm 1 mps 737 mmHg 22%
    07:00 +20°C° 0 mm 1 mps 738 mmHg 21%
    08:00 +21°C° 0 mm 1 mps 738 mmHg 20%
    09:00 +23°C° 0 mm 1 mps 738 mmHg 18%
    10:00 +25°C° 0 mm 1 mps 738 mmHg 17%
    11:00 +27°C° 0 mm 2 mps 738 mmHg 15%
    12:00 +27°C° 0 mm 2 mps 737 mmHg 15%
    13:00 +28°C° 0 mm 2 mps 737 mmHg 15%
    14:00 +29°C° 0 mm 2 mps 736 mmHg 15%
    15:00 +28°C° 0 mm 2 mps 736 mmHg 16%
    16:00 +27°C° 0 mm 2 mps 736 mmHg 18%
    17:00 +26°C° 0 mm 2 mps 736 mmHg 19%
    18:00 +25°C° 0 mm 2 mps 736 mmHg 19%
    19:00 +24°C° 0 mm 2 mps 737 mmHg 19%
    20:00 +23°C° 0 mm 2 mps 737 mmHg 19%
    21:00 +22°C° 0 mm 1 mps 737 mmHg 19%
    22:00 +22°C° 0 mm 1 mps 737 mmHg 19%
    23:00 +19°C° 0 mm 0 mps 737 mmHg 19%

    23 November, Thursday

    Time Temperature Precipitation Wind Pressure Humidity
    00:00 +21°C° 0 mm 1 mps 737 mmHg 19%
    01:00 +20°C° 0 mm 1 mps 736 mmHg 19%
    02:00 +20°C° 0 mm 1 mps 736 mmHg 19%
    03:00 +19°C° 0 mm 1 mps 736 mmHg 19%
    04:00 +19°C° 0 mm 1 mps 736 mmHg 19%
    05:00 +18°C° 0 mm 1 mps 736 mmHg 19%
    06:00 +19°C° 0 mm 1 mps 737 mmHg 19%
    07:00 +20°C° 0 mm 1 mps 737 mmHg 18%
    08:00 +19°C° 0 mm 0 mps 738 mmHg 18%
    09:00 +23°C° 0 mm 1 mps 738 mmHg 16%
    10:00 +25°C° 0 mm 1 mps 738 mmHg 15%
    11:00 +27°C° 0 mm 1 mps 738 mmHg 13%
    12:00 +28°C° 0 mm 1 mps 737 mmHg 13%
    13:00 +29°C° 0 mm 1 mps 736 mmHg 12%
    14:00 +29°C° 0 mm 1 mps 736 mmHg 12%
    15:00 +28°C° 0 mm 1 mps 736 mmHg 14%
    16:00 +27°C° 0 mm 1 mps 736 mmHg 15%
    17:00 +26°C° 0 mm 1 mps 736 mmHg 17%
    18:00 +25°C° 0 mm 1 mps 736 mmHg 17%
    19:00 +24°C° 0 mm 1 mps 737 mmHg 16%
    20:00 +23°C° 0 mm 2 mps 737 mmHg 16%
    21:00 +23°C° 0 mm 1 mps 737 mmHg 16%
    22:00 +22°C° 0 mm 1 mps 737 mmHg 17%
    23:00 +21°C° 0 mm 1 mps 737 mmHg 17%

    24 November, Friday

    Time Temperature Precipitation Wind Pressure Humidity
    00:00 +21°C° 0 mm 1 mps 737 mmHg 18%
    01:00 +19°C° 0 mm 0 mps 736 mmHg 18%
    02:00 +18°C° 0 mm 0 mps 736 mmHg 18%
    03:00 +18°C° 0 mm 0 mps 736 mmHg 19%
    04:00 +17°C° 0 mm 0 mps 736 mmHg 19%
    05:00 +17°C° 0 mm 0 mps 736 mmHg 19%
    06:00 +18°C° 0 mm 0 mps 737 mmHg 19%
    07:00 +19°C° 0 mm 0 mps 738 mmHg 18%
    08:00 +20°C° 0 mm 0 mps 738 mmHg 18%
    09:00 +22°C° 0 mm 0 mps 738 mmHg 16%
    10:00 +24°C° 0 mm 0 mps 738 mmHg 14%
    11:00 +26°C° 0 mm 0 mps 738 mmHg 13%
    12:00 +29°C° 0 mm 1 mps 737 mmHg 13%
    13:00 +30°C° 0 mm 1 mps 737 mmHg 14%
    14:00 +30°C° 0 mm 2 mps 736 mmHg 14%
    15:00 +29°C° 0 mm 2 mps 736 mmHg 16%
    16:00 +28°C° 0 mm 2 mps 736 mmHg 18%
    17:00 +27°C° 0 mm 2 mps 736 mmHg 19%
    18:00 +26°C° 0 mm 2 mps 736 mmHg 19%
    19:00 +25°C° 0 mm 2 mps 737 mmHg 18%
    20:00 +24°C° 0 mm 2 mps 737 mmHg 17%
    21:00 +23°C° 0 mm 1 mps 737 mmHg 17%
    22:00 +23°C° 0 mm 1 mps 737 mmHg 17%
    23:00 +22°C° 0 mm 1 mps 737 mmHg 17%
    Show more